QBEE50-LTU-OC (42708 NORAD) Tracking and Keplerian Element Data

This shows tracking and keplerian element data for the satellite.

Feedback or suggestion? Click here.




ElementValue
Catalog42708
NameQBEE50-LTU-OC
Epoch Orbit10218
Epoch Day57.60728726
Epoch Year2019
RAAN110.2979
Inclination51.6043
Eccentricity0.0003995
Argument of Perigee293.2873
Mean Anonmoly66.7735
Mean Motion16.4699342
Decay Rate0.12539676
L11 42708U 98067LR 19057.60728726 .12539676 12620-4 24972-3 0 9992
L22 42708 51.6043 110.2979 0003995 293.2873 66.7735 16.46993420102181

Live tracking and technical data element details for QBEE50-LTU-OC (NORAD 42708). QBEE50-LTU-OC can be tracked NOW for your location showing map with azimuth and elevation plus other details from your city location.

Track the satellite on the map from your city or location and see movement details for azimuth, elevation, latitude, longitude, range, height, and movement on the map or in text.







IsCatalogInMostPopularTable: catalog: 42708, numindb: 224
Update: records affected: 1



GetName: 42708 QBEE50-LTU-OC

Hit Count: updated at: Wed, 20 Mar 2019 05:16:51 GMT